TimeEDT,TemperatureF,Dew PointF,Humidity,Sea Level PressureIn,VisibilityMPH,Wind Direction,Wind SpeedMPH,Gust SpeedMPH,PrecipitationIn,Events,Conditions,WindDirDegrees,DateUTC
12:15 AM,71.6,71.6,100,29.87,5.0,West,6.9,-,N/A,Rain,Light Rain,270,2013-07-23 04:15:00
12:35 AM,71.6,71.6,100,29.88,5.0,WNW,5.8,-,0.03,Rain,Light Rain,290,2013-07-23 04:35:00
12:55 AM,71.6,71.6,100,29.88,7.0,West,5.8,-,0.03,,Overcast,280,2013-07-23 04:55:00
1:15 AM,71.6,71.6,100,29.88,5.0,West,8.1,-,N/A,,Overcast,280,2013-07-23 05:15:00
1:35 AM,71.6,71.6,100,29.88,7.0,West,6.9,-,N/A,,Overcast,270,2013-07-23 05:35:00
1:55 AM,71.6,71.6,100,29.88,5.0,West,4.6,-,0.01,,Mostly Cloudy,270,2013-07-23 05:55:00
2:15 AM,71.6,71.6,100,29.88,5.0,West,4.6,-,N/A,,Scattered Clouds,280,2013-07-23 06:15:00
2:35 AM,71.6,69.8,94,29.89,5.0,West,6.9,-,N/A,,Mostly Cloudy,280,2013-07-23 06:35:00
2:55 AM,71.6,69.8,94,29.89,7.0,West,8.1,-,N/A,,Mostly Cloudy,270,2013-07-23 06:55:00
3:15 AM,71.6,69.8,94,29.89,7.0,West,8.1,-,N/A,,Mostly Cloudy,280,2013-07-23 07:15:00
3:35 AM,71.6,69.8,94,29.89,7.0,WNW,6.9,-,N/A,,Mostly Cloudy,290,2013-07-23 07:35:00
3:55 AM,71.6,69.8,94,29.89,7.0,WNW,4.6,-,N/A,,Clear,290,2013-07-23 07:55:00
4:15 AM,69.8,69.8,100,29.88,7.0,West,4.6,-,N/A,,Clear,280,2013-07-23 08:15:00
4:35 AM,69.8,69.8,100,29.88,5.0,WNW,5.8,-,N/A,,Clear,290,2013-07-23 08:35:00
4:55 AM,69.8,69.8,100,29.89,5.0,WNW,4.6,-,N/A,,Clear,290,2013-07-23 08:55:00
5:15 AM,69.8,69.8,100,29.89,5.0,West,4.6,-,N/A,,Clear,280,2013-07-23 09:15:00
5:35 AM,69.8,69.8,100,29.88,5.0,WNW,3.5,-,N/A,,Clear,290,2013-07-23 09:35:00
5:55 AM,68.0,68.0,100,29.88,3.0,WNW,3.5,-,N/A,,Clear,290,2013-07-23 09:55:00
6:15 AM,68.0,68.0,100,29.89,3.0,West,4.6,-,N/A,,Scattered Clouds,280,2013-07-23 10:15:00
6:35 AM,68.0,68.0,100,29.89,3.0,Calm,Calm,-,N/A,,Scattered Clouds,0,2013-07-23 10:35:00
6:55 AM,68.0,68.0,100,29.90,2.5,West,3.5,-,N/A,,Scattered Clouds,270,2013-07-23 10:55:00
7:15 AM,69.8,69.8,100,29.90,3.0,West,4.6,-,N/A,,Mostly Cloudy,260,2013-07-23 11:15:00
7:35 AM,69.8,69.8,100,29.89,3.0,West,4.6,-,N/A,,Overcast,270,2013-07-23 11:35:00
7:55 AM,69.8,69.8,100,29.89,3.0,West,5.8,-,N/A,,Overcast,270,2013-07-23 11:55:00
8:15 AM,69.8,69.8,100,29.89,3.0,West,6.9,-,N/A,,Overcast,260,2013-07-23 12:15:00
8:35 AM,71.6,69.8,94,29.88,4.0,West,4.6,-,N/A,,Overcast,260,2013-07-23 12:35:00
8:55 AM,71.6,69.8,94,29.88,5.0,WSW,6.9,-,N/A,,Mostly Cloudy,250,2013-07-23 12:55:00
9:15 AM,73.4,71.6,94,29.88,7.0,West,8.1,-,N/A,,Mostly Cloudy,260,2013-07-23 13:15:00
9:35 AM,73.4,69.8,88,29.88,7.0,WSW,5.8,-,N/A,,Mostly Cloudy,250,2013-07-23 13:35:00
9:55 AM,77.0,71.6,83,29.88,7.0,WSW,5.8,-,N/A,,Mostly Cloudy,240,2013-07-23 13:55:00
10:15 AM,75.2,71.6,89,29.89,7.0,West,6.9,-,N/A,,Overcast,260,2013-07-23 14:15:00
10:35 AM,77.0,71.6,83,29.89,7.0,WSW,4.6,-,N/A,,Mostly Cloudy,250,2013-07-23 14:35:00
10:55 AM,78.8,71.6,78,29.90,7.0,West,11.5,-,N/A,,Mostly Cloudy,280,2013-07-23 14:55:00
11:15 AM,78.8,71.6,78,29.90,10.0,West,11.5,-,N/A,,Mostly Cloudy,270,2013-07-23 15:15:00
11:35 AM,80.6,71.6,74,29.90,10.0,West,5.8,-,N/A,,Mostly Cloudy,260,2013-07-23 15:35:00
11:55 AM,80.6,71.6,74,29.90,10.0,West,5.8,-,N/A,,Mostly Cloudy,260,2013-07-23 15:55:00
12:15 PM,80.6,69.8,70,29.91,10.0,West,6.9,-,N/A,,Scattered Clouds,260,2013-07-23 16:15:00
12:35 PM,82.4,71.6,70,29.90,10.0,West,9.2,-,N/A,,Mostly Cloudy,260,2013-07-23 16:35:00
12:55 PM,82.4,69.8,66,29.90,10.0,West,6.9,-,N/A,,Mostly Cloudy,280,2013-07-23 16:55:00
1:15 PM,80.6,71.6,74,29.89,10.0,West,8.1,-,N/A,,Mostly Cloudy,270,2013-07-23 17:15:00
1:35 PM,82.4,71.6,70,29.88,10.0,West,9.2,-,N/A,,Scattered Clouds,270,2013-07-23 17:35:00
1:55 PM,82.4,71.6,70,29.88,10.0,West,8.1,-,N/A,,Scattered Clouds,270,2013-07-23 17:55:00
2:15 PM,82.4,71.6,70,29.87,10.0,WSW,9.2,-,N/A,,Mostly Cloudy,250,2013-07-23 18:15:00
2:35 PM,84.2,69.8,62,29.86,10.0,West,8.1,-,N/A,,Scattered Clouds,270,2013-07-23 18:35:00
2:55 PM,82.4,69.8,66,29.85,10.0,WSW,4.6,-,N/A,,Mostly Cloudy,240,2013-07-23 18:55:00
3:15 PM,82.4,71.6,70,29.85,10.0,West,4.6,-,N/A,,Mostly Cloudy,280,2013-07-23 19:15:00
3:35 PM,84.2,71.6,66,29.84,10.0,WSW,5.8,-,N/A,,Mostly Cloudy,250,2013-07-23 19:35:00
4:15 PM,86.0,71.6,62,29.83,10.0,WNW,5.8,-,N/A,,Clear,300,2013-07-23 20:15:00
4:35 PM,86.0,69.8,58,29.83,10.0,West,8.1,-,N/A,,Scattered Clouds,270,2013-07-23 20:35:00
4:55 PM,84.2,71.6,66,29.83,10.0,West,5.8,-,N/A,,Scattered Clouds,280,2013-07-23 20:55:00
5:15 PM,82.4,71.6,70,29.83,10.0,West,6.9,-,N/A,,Mostly Cloudy,280,2013-07-23 21:15:00
5:35 PM,84.2,71.6,66,29.83,10.0,WNW,5.8,-,N/A,,Scattered Clouds,290,2013-07-23 21:35:00
5:55 PM,84.2,71.6,66,29.83,10.0,WNW,4.6,-,N/A,,Scattered Clouds,290,2013-07-23 21:55:00
6:15 PM,82.4,71.6,70,29.82,10.0,WNW,4.6,-,N/A,,Scattered Clouds,300,2013-07-23 22:15:00
6:35 PM,80.6,71.6,74,29.81,10.0,West,4.6,-,N/A,,Scattered Clouds,280,2013-07-23 22:35:00
6:55 PM,80.6,73.4,79,29.82,10.0,WNW,4.6,-,N/A,,Clear,290,2013-07-23 22:55:00
7:15 PM,80.6,71.6,74,29.83,10.0,Calm,Calm,-,N/A,Rain,Light Rain,0,2013-07-23 23:15:00
7:35 PM,71.6,68.0,88,29.83,10.0,WNW,10.4,-,N/A,Rain,Light Rain,290,2013-07-23 23:35:00
7:55 PM,69.8,64.4,83,29.82,3.0,WSW,13.8,20.7,0.15,Rain,Light Rain,240,2013-07-23 23:55:00
8:15 PM,69.8,64.4,83,29.83,10.0,WSW,6.9,-,N/A,,Clear,240,2013-07-24 00:15:00
8:35 PM,68.0,66.2,94,29.82,10.0,SW,5.8,-,N/A,,Clear,230,2013-07-24 00:35:00
8:55 PM,68.0,66.2,94,29.82,10.0,WSW,5.8,-,N/A,,Clear,240,2013-07-24 00:55:00
9:15 PM,68.0,66.2,94,29.81,10.0,WSW,4.6,-,0.01,,Clear,250,2013-07-24 01:15:00
9:35 PM,68.0,66.2,94,29.82,10.0,SW,5.8,-,0.01,,Clear,230,2013-07-24 01:35:00
9:55 PM,68.0,66.2,94,29.82,10.0,SW,5.8,-,0.01,,Clear,230,2013-07-24 01:55:00
10:15 PM,68.0,66.2,94,29.83,10.0,SW,3.5,-,N/A,,Clear,230,2013-07-24 02:15:00
10:35 PM,69.8,68.0,94,29.84,10.0,SW,4.6,-,N/A,,Clear,230,2013-07-24 02:35:00
10:55 PM,71.6,68.0,88,29.84,10.0,WSW,5.8,-,N/A,,Clear,240,2013-07-24 02:55:00
11:15 PM,71.6,68.0,88,29.84,10.0,WSW,4.6,-,N/A,,Scattered Clouds,240,2013-07-24 03:15:00
11:35 PM,71.6,68.0,88,29.85,10.0,West,3.5,-,N/A,,Mostly Cloudy,260,2013-07-24 03:35:00
11:55 PM,73.4,69.8,88,29.84,10.0,West,3.5,-,N/A,,Scattered Clouds,260,2013-07-24 03:55:00